Time,TemperatureF,DewpointF,PressureIn,WindDirection,WindDirectionDegrees,WindSpeedMPH,WindSpeedGustMPH,Humidity,HourlyPrecipIn,Conditions,Clouds,dailyrainin,SoftwareType,DateUTC
2013-03-29 09:10:00,47.2,35.2,30.02,NE,49,3.0,3.0,63,0.00,,,0.00,Wunderground v.1.15,2013-03-29 13:10:00,
2013-03-29 09:15:00,47.7,35.3,30.02,ENE,67,3.0,4.0,62,0.00,,,0.00,Wunderground v.1.15,2013-03-29 13:15:00,
2013-03-29 09:20:00,48.1,35.3,30.02,East,94,3.0,7.0,61,0.00,,,0.00,Wunderground v.1.15,2013-03-29 13:20:00,
2013-03-29 09:25:00,48.5,35.2,30.02,NNW,333,4.0,7.0,60,0.00,,,0.00,Wunderground v.1.15,2013-03-29 13:25:00,
2013-03-29 09:35:00,49.2,35.5,30.02,NNW,330,5.0,6.0,59,0.00,,,0.00,Wunderground v.1.15,2013-03-29 13:35:00,
2013-03-29 09:40:00,49.7,35.5,30.02,ENE,57,4.0,4.0,58,0.00,,,0.00,Wunderground v.1.15,2013-03-29 13:40:00,
2013-03-29 09:45:00,50.1,35.4,30.02,NNW,336,3.0,4.0,57,0.00,,,0.00,Wunderground v.1.15,2013-03-29 13:45:00,
2013-03-29 09:50:00,50.5,35.4,30.02,WNW,296,4.0,7.0,56,0.00,,,0.00,Wunderground v.1.15,2013-03-29 13:50:00,
2013-03-29 10:00:00,51.0,35.8,30.02,WNW,300,4.0,5.0,56,0.00,,,0.00,Wunderground v.1.15,2013-03-29 14:00:00,
2013-03-29 12:20:00,53.8,34.0,30.01,North,10,4.0,4.0,47,0.00,,,0.00,Wunderground v.1.15,2013-03-29 16:20:00,
2013-03-29 12:30:00,53.9,33.6,30.01,ENE,65,4.0,5.0,46,0.00,,,0.00,Wunderground v.1.15,2013-03-29 16:30:00,
2013-03-29 12:40:00,54.2,33.9,30.01,ENE,61,3.0,3.0,46,0.00,,,0.00,Wunderground v.1.15,2013-03-29 16:40:00,
2013-03-29 12:50:00,54.5,34.1,30.01,NE,36,3.0,3.0,46,0.00,,,0.00,Wunderground v.1.15,2013-03-29 16:50:00,
2013-03-29 12:55:00,54.4,33.5,30.00,NE,55,3.0,3.0,45,0.00,,,0.00,Wunderground v.1.15,2013-03-29 16:55:00,
2013-03-29 13:05:00,54.8,33.8,30.00,NE,48,2.0,3.0,45,0.00,,,0.00,Wunderground v.1.15,2013-03-29 17:05:00,
2013-03-29 13:15:00,55.3,33.2,30.00,NNE,31,2.0,2.0,43,0.00,,,0.00,Wunderground v.1.15,2013-03-29 17:15:00,
2013-03-29 13:25:00,55.7,32.9,29.99,NNE,13,3.0,3.0,42,0.00,,,0.00,Wunderground v.1.15,2013-03-29 17:25:00,
2013-03-29 13:35:00,55.9,33.1,29.98,ENE,59,3.0,4.0,42,0.00,,,0.00,Wunderground v.1.15,2013-03-29 17:35:00,
2013-03-29 13:40:00,56.5,33.1,29.98,ENE,57,2.0,2.0,41,0.00,,,0.00,Wunderground v.1.15,2013-03-29 17:40:00,
2013-03-29 13:50:00,57.5,32.7,29.97,North,355,3.0,3.0,39,0.00,,,0.00,Wunderground v.1.15,2013-03-29 17:50:00,
2013-03-29 13:55:00,57.6,32.8,29.97,ENE,60,2.0,3.0,39,0.00,,,0.00,Wunderground v.1.15,2013-03-29 17:55:00,
2013-03-29 14:05:00,57.4,33.9,29.97,NNE,12,2.0,2.0,41,0.00,,,0.00,Wunderground v.1.15,2013-03-29 18:05:00,
2013-03-29 14:10:00,57.4,32.6,29.96,NNE,13,1.0,1.0,39,0.00,,,0.00,Wunderground v.1.15,2013-03-29 18:10:00,
2013-03-29 14:20:00,56.8,33.3,29.97,NE,52,2.0,2.0,41,0.00,,,0.00,Wunderground v.1.15,2013-03-29 18:20:00,
2013-03-29 14:30:00,56.0,33.2,29.96,NNE,15,2.0,2.0,42,0.00,,,0.00,Wunderground v.1.15,2013-03-29 18:30:00,
2013-03-29 14:35:00,55.5,32.8,29.96,North,355,2.0,2.0,42,0.00,,,0.00,Wunderground v.1.15,2013-03-29 18:35:00,
2013-03-29 14:45:00,55.5,32.8,29.96,ENE,69,1.0,1.0,42,0.00,,,0.00,Wunderground v.1.15,2013-03-29 18:45:00,
2013-03-29 14:55:00,55.3,32.6,29.95,SSE,159,3.0,4.0,42,0.00,,,0.00,Wunderground v.1.15,2013-03-29 18:55:00,
2013-03-29 15:05:00,55.1,33.0,29.95,WSW,238,2.0,5.0,43,0.00,,,0.00,Wunderground v.1.15,2013-03-29 19:05:00,
2013-03-29 15:10:00,55.1,32.4,29.95,West,263,3.0,3.0,42,0.00,,,0.00,Wunderground v.1.15,2013-03-29 19:10:00,
2013-03-29 15:15:00,55.1,31.2,29.95,WNW,295,4.0,4.0,40,0.00,,,0.00,Wunderground v.1.15,2013-03-29 19:15:00,
2013-03-29 15:25:00,55.3,32.0,29.95,WSW,257,1.0,2.0,41,0.00,,,0.00,Wunderground v.1.15,2013-03-29 19:25:00,
2013-03-29 15:30:00,55.4,31.5,29.95,West,266,2.0,3.0,40,0.00,,,0.00,Wunderground v.1.15,2013-03-29 19:30:00,
2013-03-29 15:35:00,55.3,30.7,29.95,West,270,2.0,3.0,39,0.00,,,0.00,Wunderground v.1.15,2013-03-29 19:35:00,
2013-03-29 15:40:00,55.4,30.8,29.95,West,265,2.0,2.0,39,0.00,,,0.00,Wunderground v.1.15,2013-03-29 19:40:00,
2013-03-29 15:50:00,56.4,29.1,29.95,NE,48,2.0,5.0,35,0.00,,,0.00,Wunderground v.1.15,2013-03-29 19:50:00,
2013-03-29 15:55:00,56.4,30.4,29.95,NE,38,3.0,5.0,37,0.00,,,0.00,Wunderground v.1.15,2013-03-29 19:55:00,
2013-03-29 16:05:00,55.9,30.0,29.95,East,80,2.0,3.0,37,0.00,,,0.00,Wunderground v.1.15,2013-03-29 20:05:00,
2013-03-29 16:10:00,55.9,28.6,29.95,NNE,23,2.0,2.0,35,0.00,,,0.00,Wunderground v.1.15,2013-03-29 20:10:00,
2013-03-29 16:15:00,56.0,28.7,29.95,NE,55,3.0,3.0,35,0.00,,,0.00,Wunderground v.1.15,2013-03-29 20:15:00,
2013-03-29 16:25:00,55.8,28.5,29.94,NE,34,2.0,4.0,35,0.00,,,0.00,Wunderground v.1.15,2013-03-29 20:25:00,
2013-03-29 16:35:00,55.4,28.9,29.95,NE,47,3.0,3.0,36,0.00,,,0.00,Wunderground v.1.15,2013-03-29 20:35:00,